sat.trackr.live / text

‹ back to catalog

BB3

NORAD 57760 · 2023-133D

PAYLOAD ACTIVE UNKNOWN

§ Identity

Operator
Country
US
Launch date
2023-09-02
Launch site
AFWTR
Launch vehicle
Mass (kg)
RCS (m²)

External: N2YO · Heavens-Above · Gunter

§ Orbital elements

Epoch: 2026-09-21T21:59:56.088096Z

Period
96.87 min
Inclination
80.9948°
Eccentricity
0.0008877
Mean motion
14.86547073 rev/d
Perigee alt
602.5 km
Apogee alt
614.9 km
Semi-major
6,986.9 km
B*
1.0111e-4
RAAN
242.0949°
Arg perigee
26.9998°
Mean anomaly
333.1674°
Rev number
15,634

§ Raw data

BB31 57760U 23133D   26264.91662139  .00000913  00000+0  10111-3 0  99932 57760  80.9948 242.0949 0008877  26.9998 333.1674 14.86547073156349

JSON: /api/v1/satellites/57760 · /tle

For live sub-satellite position, see the globe view (requires WebGL).

§ Visibility from observer

Set your observer location to see the next 7 days of passes ≥ 10°. The values pass through the URL so the page stays shareable.

No JS? Fill the form by hand. The geolocation button needs JavaScript.